OBJECT G, 56749

Orbit data source: Space-Track

You're viewing an Uncataloged Satellite

Recently launched and/or uncataloged satellites may have evolving metadata. Metadata may include but not limited to: Owner, Maufacturer, Bus, Motor, and Mission.

OBJECT G, 56749 is a South Korean satellite in SSO that was launched on Thu, 25 May 2023 UTC via an NURI launch vehicle from the Naro Space Center, South Korea (NSC). Unknown objects in Earth's orbit typically refer to objects detected orbiting the Earth but have not yet been identified or cataloged. These objects could be anything from previously untracked satellites, spent rocket stages, debris from satellite collisions, or even natural meteoroids temporarily captured by Earth's gravity.

Loading next visibility...
Identifier
56749, 2023-072G
Orbit
SSO
Country
Flag of KRKR / SKOR
Related business
None
Manufacturer
Unknown
Mission
Operational Commercial Technology
Bus & Motor
Unknown
Mass
Unknown
Launch date (UTC)
2023-05-25 (3 years ago)
Launch vehicle
NURI
Launch site
Naro Space Center, South Korea (NSC)
Object type
Unknown
Shape & HBR
Box, 0.1 m
Radar Cross Section
0.035 m², Medium (>0.1 m² and < 1m²)

Expand to show TLE details & history
Last TLE update: 11 hours ago

TLE from 11 hours ago
0 OBJECT G
1 56749U 23072G   26171.54809304  .00026419  00000-0  46013-3 0  9994
2 56749  97.4903  19.5341 0002418 356.1480   3.9752 15.50736389170988
Epoch: 2026-06-20T13:09Z
TLE epoch observation values (Epoch: 2026-06-20T13:09:15.238Z)
Latitude
-0.00008°
Longitude
-86.54052°
Altitude
416.065 km
Speed
7.662 km/s
True Right ascension
01h 18m 08s
True Declination
0° 00' 00"
Sunlit
Object was in daylight at epoch
Visualization orbit readout
Latitude
Unknown
Longitude
Unknown
Altitude
Unknown
Speed
Unknown
Apparent Right ascension
Unknown
Apparent Declination
Unknown
Sunlit
N/A
Visualization observer readout
Local Sidereal Time
11:00:47
Azimuth
Unknown
Elevation
Unknown
Doppler factor
Unknown
Orbital elements
Apogee altitude
413.145 km
Perigee altitude
409.862 km
Semi-major axis
6,789.64 km
Eccentricity
0.00024
Inclination
97.4903°
RAAN
19.5341°
Arg. of periapsis
356.148°
True anomaly
3.97712°
Mean anomaly
3.9752°
Eccentric anomaly
3.97616°
Mean motion
3.87948 °/min
Orbital period
92.8 mins
BSTAR
0.00046013
Loading maneuver chart data...
Computing Atmospheric mass density...
Loading historical data...
Loading historical data...
Loading historical data...
Loading historical data...
Loading historical data...
Loading historical data...
Loading historical data...

Documentation

Showing up to 5 results
|